This is the latest recevied weather packets stored in our database for station/object K4IR. If no packets are shown the sender has not sent any weather packets the latest 10 day(s).
| Time | Temp. | Humidity | Pressure | Rain* | Wind** | Luminosity | Snow |
|---|---|---|---|---|---|---|---|
| 1788039476 | 26.11° C | 87% | 1020.8 hPa | 0 mm | - | 119 W/m² | - |
| 1788038873 | 26.11° C | 86% | 1021 hPa | 0 mm | - | 126 W/m² | - |
| 1788038273 | 26.11° C | 86% | 1020.9 hPa | 0 mm | - | 138 W/m² | - |
| 1788037669 | 26.11° C | 88% | 1021.1 hPa | 0 mm | - | 144 W/m² | - |
| 1788037068 | 25.56° C | 90% | 1020.8 hPa | 0.51 mm | - | 143 W/m² | - |
| 1788036467 | 25.56° C | 88% | 1020.7 hPa | 0 mm | - | 106 W/m² | - |
| 1788035868 | 26.67° C | 84% | 1020.6 hPa | 0.51 mm | - | 67 W/m² | - |
| 1788035263 | 27.22° C | 84% | 1020.8 hPa | 0 mm | - | 107 W/m² | - |
| 1788034661 | 27.22° C | 83% | 1020.8 hPa | 0 mm | - | 147 W/m² | - |
| 1788034057 | 27.78° C | 84% | 1020.5 hPa | 0 mm | - | 141 W/m² | - |
| 1788033457 | 27.78° C | 83% | 1020.5 hPa | 0 mm | - | 157 W/m² | - |
| 1788032852 | 28.33° C | 82% | 1020.3 hPa | 0 mm | - | 156 W/m² | - |
| 1788032248 | 28.33° C | 80% | 1020.2 hPa | 0 mm | - | 182 W/m² | - |
| 1788031644 | 28.89° C | 80% | 1020.2 hPa | 0 mm | - | 198 W/m² | - |
| 1788031044 | 28.89° C | 77% | 1020 hPa | 0 mm | - | 232 W/m² | - |
| 1788030444 | 28.89° C | 78% | 1020.3 hPa | 0 mm | - | 266 W/m² | - |
| 1788029839 | 28.33° C | 77% | 1020.3 hPa | 0 mm | - | 306 W/m² | - |
| 1788029239 | 28.89° C | 77% | 1020.4 hPa | 0 mm | - | 351 W/m² | - |
| 1788028634 | 28.33° C | 76% | 1020.7 hPa | 0 mm | - | 365 W/m² | - |
| 1788028030 | 28.33° C | 80% | 1020.9 hPa | 0 mm | - | 272 W/m² | - |
| 1788027431 | 28.33° C | 78% | 1021.3 hPa | 0 mm | - | 271 W/m² | - |
| 1788026830 | 28.33° C | 76% | 1021.6 hPa | 0 mm | - | 288 W/m² | - |
| 1788026226 | 28.33° C | 77% | 1021.7 hPa | 0 mm | - | 325 W/m² | - |
| 1788025626 | 28.89° C | 78% | 1021.6 hPa | 0 mm | - | 464 W/m² | - |
| 1788025025 | 28.33° C | 79% | 1022.1 hPa | 0 mm | - | 308 W/m² | - |
* Rain latest hour (hover to see other rain measurements)
** Current wind speed in m/s (hover to see current wind gust speed)